This demonstration page uses our WeatherBlox Daily Observations layout. Learn more.

Left ArrowRight Arrow

Hourly Observations for September 4, 2022

Temp ( °F °C ) Dew Point ( °F °C ) Humidity (%) Winds ( mph kmh ) Pressure ( in mb ) Visibility ( mi km ) Precip ( " mm )
12:55 am 00:55 Clear 65 18.6 53 11.9 65 65 NNE 7 11 30.19 1022 10 16 0.00 0.00
1:55 am 01:55 Clear 66 19 54 12 64 64 N 5 7 30.16 1021 10 16 0.00 0.00
2:55 am 02:55 Clear 62 16.7 54 12 74 74 NW 6 9 30.16 1021 10 16 0.00 0.00
3:55 am 03:55 Clear 62 16.4 53 11.9 75 75 NNW 5 7 30.16 1022 10 16 0.00 0.00
4:55 am 04:55 Clear 61 16.1 53 11.9 76 76 NNW 5 7 30.16 1022 10 16 0.00 0.00
5:55 am 05:55 Clear 60 15.6 53 11.8 78 78 NNW 6 9 30.16 1022 10 16 0.00 0.00
6:55 am 06:55 Mostly Sunny 60 15.3 53 11.5 78 78 Calm 30.17 1022 10 16 0.00 0.00
7:55 am 07:55 Mostly Sunny 60 15.3 53 11.9 80 80 NNW 5 7 30.19 1022 10 16 0.00 0.00
8:55 am 08:55 Cloudy 62 16.8 57 14.1 84 84 N 5 7 30.18 1022 10 16 0.00 0.00
9:55 am 09:55 Cloudy 65 18.6 58 14.7 78 78 NNE 3 6 30.18 1022 10 16 0.00 0.00
10:55 am 10:55 Mostly Sunny 68 19.9 60 15.7 77 77 ENE 6 9 30.18 1022 10 16 0.00 0.00
11:55 am 11:55 Mostly Sunny 73 22.8 63 17 70 70 E 3 6 30.17 1022 10 16 0.00 0.00
12:55 pm 12:55 Mostly Cloudy 75 24 63 17 65 65 E 8 13 30.15 1021 10 16 0.00 0.00
1:55 pm 13:55 Mostly Sunny 76 24.7 62 16.9 62 62 ENE 3 6 30.12 1020 10 16 0.00 0.00
2:55 pm 14:55 Mostly Sunny 79 26.3 60 15.6 52 52 E 5 7 30.11 1020 10 16 0.00 0.00
3:55 pm 15:55 Mostly Sunny 81 27.1 60 15.8 50 50 ESE 5 7 30.07 1018 10 16 0.00 0.00
4:55 pm 16:55 Mostly Sunny 81 27 62 16.6 53 53 ESE 7 11 30.06 1018 10 16 0.00 0.00
5:55 pm 17:55 Sunny 79 26.3 61 16.2 54 54 ESE 9 15 30.06 1018 10 16 0.00 0.00
6:55 pm 18:55 Sunny 77 25.2 62 16.9 60 60 E 7 11 30.05 1018 10 16 0.00 0.00
7:55 pm 19:55 Clear 74 23.1 63 17.1 69 69 E 3 6 30.05 1018 10 16 0.00 0.00
8:55 pm 20:55 Clear 73 23 63 17 69 69 undefined N/A 30.01 1016 10 16 0.00 0.00
9:55 pm 21:55 Clear 69 20.8 63 17.2 80 80 ENE 3 6 30.07 1018 10 16 0.00 0.00
10:55 pm 22:55 Clear 68 20.1 62 16.9 82 82 Calm 30.07 1018 10 16 0.00 0.00
11:55 pm 23:55 Clear 67 19.6 62 16.8 84 84 Calm 30.06 1018 10 16 0.00 0.00

Powered by AerisWeather